User: anonymous   Login
Location: Carnières
(50.1682°N, 3.3474°E)
Time: 14:15:00
(UTC+00:00)
Language:

Cosmos 540 Rocket - Orbit

View from above orbital plane
View from above orbital plane
View from above satellite
View from above satellite

Ground track
Ground track

The orbit data is extracted from the following two-line orbital elements,

1  6324U 72104B   24196.18124913  .00000640  00000-0  19332-3 0  9991
2  6324  74.0785 355.4870 0009064 193.8999 166.1911 14.44408757708450
Epoch (UTC): 14 July 2024 04:20:59
Eccentricity: 0.0009064
inclination: 74.0785°
perigee height: 737 km
apogee height: 750 km
right ascension of ascending node: 355.4870°
argument of perigee: 193.8999°
revolutions per day: 14.44408757
mean anomaly at epoch: 166.1911°
orbit number at epoch: 70845

The dashed part of the orbit path shows where the satellite is in the earth's shadow,  

DLR